DW4554 Weather Reports


time (UTC)temp
C
wind
direction
speed
KPH
gust
KPH
rain 1hr
cm
rain 24hr
cm
rain mn
cm
humidity
%
barometer
mb
20260506084904 21 178 9.7 20.9 0.00 0.00 0.00 61 1006.1
20260506084404 20 159 4.8 11.3 0.00 0.00 0.00 60 1006.1
20260506083904 20 187 8.0 19.3 0.00 0.00 0.00 61 1006.1
20260506083405 20 213 4.8 20.9 0.00 0.00 0.00 62 1006.1
20260506082905 20 230 3.2 16.1 0.00 0.00 0.00 62 1006.1
20260506082404 20 206 12.9 19.3 0.00 0.00 0.00 63 1006.2
20260506081904 20 225 4.8 14.5 0.00 0.00 0.00 65 1006.0
20260506081405 20 211 9.7 19.3 0.00 0.00 0.00 64 1006.0
20260506080904 20 209 8.0 14.5 0.00 0.00 0.00 64 1006.0
20260506080405 20 176 9.7 19.3 0.00 0.00 0.00 64 1006.1
20260506073405 18 197 8.0 14.5 0.00 0.00 0.00 68 1006.1
20260506072904 18 181 4.8 12.9 0.00 0.00 0.00 68 1006.2
20260506072404 18 171 11.3 20.9 0.00 0.00 0.00 68 1006.2
20260506071904 18 205 6.4 12.9 0.00 0.00 0.00 69 1006.1
20260506071404 18 186 3.2 11.3 0.00 0.00 0.00 69 1006.1
20260506070904 17 205 3.2 11.3 0.00 0.00 0.00 69 1006.1
20260506070404 17 179 4.8 11.3 0.00 0.00 0.00 69 1006.1
20260506062404 16 233 3.2 9.7 0.00 0.00 0.00 74 1006.0
20260506061904 16 160 3.2 11.3 0.00 0.00 0.00 75 1006.1
20260506061404 15 214 6.4 14.5 0.00 0.00 0.00 75 1006.1
20260506060904 15 181 4.8 11.3 0.00 0.00 0.00 76 1006.1
20260506060404 15 191 4.8 9.7 0.00 0.00 0.00 76 1006.0
20260506051404 13 53 3.2 4.8 0.00 0.00 0.00 82 1005.7
20260506050904 13 56 1.6 4.8 0.00 0.00 0.00 83 1005.7
20260506044404 12 67 1.6 4.8 0.00 0.00 0.00 83 1005.6
20260506043905 12 67 1.6 3.2 0.00 0.00 0.00 83 1005.5
20260506043404 12 68 0.0 3.2 0.00 0.00 0.00 83 1005.4
20260506042904 12 68 1.6 4.8 0.00 0.00 0.00 83 1005.4
20260506042404 12 68 3.2 4.8 0.00 0.00 0.00 82 1005.3
20260506041404 12 68 1.6 3.2 0.00 0.00 0.00 81 1005.4
20260506040904 12 68 0.0 3.2 0.00 0.00 0.00 81 1005.3
20260506035904 12 68 3.2 4.8 0.00 0.00 0.00 80 1005.3
20260506034905 12 68 1.6 4.8 0.00 0.00 0.00 79 1005.2
20260506034404 12 68 0.0 3.2 0.00 0.00 0.00 78 1005.1
20260506033904 12 68 1.6 4.8 0.00 0.00 0.00 78 1005.2
20260506033404 13 68 0.0 0.0 0.00 0.00 0.00 77 1005.1
20260506032904 13 68 0.0 0.0 0.00 0.00 0.00 77 1005.1
20260506032405 13 68 0.0 0.0 0.00 0.00 0.00 77 1005.0
20260506031405 13 68 0.0 4.8 0.00 0.00 0.00 77 1004.9
20260506030904 13 68 0.0 4.8 0.00 0.00 0.00 77 1004.8
20260506025904 13 67 1.6 3.2 0.00 0.00 0.00 76 1004.7
20260506025404 13 67 1.6 4.8 0.00 0.00 0.00 75 1004.7
20260506024905 13 67 1.6 3.2 0.00 0.00 0.00 75 1004.8
20260506023904 13 80 4.8 11.3 0.00 0.00 0.00 74 1004.7
20260506023404 14 61 1.6 4.8 0.00 0.00 0.00 74 1004.7
20260506022905 14 61 0.0 4.8 0.00 0.00 0.00 74 1004.7
20260506021904 14 77 1.6 4.8 0.00 0.00 0.00 73 1004.8
20260506021404 14 77 0.0 3.2 0.00 0.00 0.00 73 1004.9
20260506020904 14 77 1.6 8.0 0.00 0.00 0.00 73 1004.8
20260506020404 14 104 1.6 9.7 0.00 0.00 0.00 73 1004.7
20260506015904 14 97 1.6 4.8 0.00 0.00 0.00 72 1004.6
20260506015404 15 117 1.6 8.0 0.00 0.00 0.00 72 1004.7
20260506014904 15 97 1.6 4.8 0.00 0.00 0.00 72 1004.6
20260506013904 15 103 1.6 14.5 0.00 0.00 0.00 71 1004.7
20260506012905 15 135 3.2 8.0 0.00 0.00 0.00 71 1004.8
20260506012404 15 142 0.0 1.6 0.00 0.00 0.00 71 1004.7
20260506011904 15 141 3.2 12.9 0.00 0.00 0.00 70 1004.6
20260506010904 15 155 4.8 14.5 0.00 0.00 0.00 70 1004.4
20260506010404 15 98 4.8 19.3 0.00 0.00 0.00 70 1004.3
20260506005905 15 111 1.6 9.7 0.00 0.00 0.00 69 1004.3
20260506005404 15 117 1.6 8.0 0.00 0.00 0.00 69 1004.2
20260506004904 15 131 1.6 16.1 0.00 0.00 0.00 69 1004.2
20260506004404 15 122 1.6 8.0 0.00 0.00 0.00 68 1004.3
20260506003904 15 88 3.2 11.3 0.00 0.00 0.00 68 1004.3
20260506003404 16 124 1.6 9.7 0.00 0.00 0.00 68 1004.3
20260506002905 16 124 1.6 9.7 0.00 0.00 0.00 68 1004.3
20260506002404 16 96 4.8 12.9 0.00 0.00 0.00 68 1004.2
20260506001905 16 80 1.6 4.8 0.00 0.00 0.00 67 1004.2
20260506001404 16 112 3.2 9.7 0.00 0.00 0.00 67 1004.2
20260506000904 16 289 4.8 14.5 0.00 0.00 0.00 67 1004.2
20260506000404 16 124 3.2 8.0 0.00 0.00 0.00 67 1004.1
20260505235904 16 158 1.6 12.9 0.00 0.00 0.00 66 1004.1
20260505235404 16 139 6.4 11.3 0.00 0.00 0.00 66 1004.2
20260505234412 16 162 3.2 4.8 0.00 0.00 0.00 66 1004.1
20260505233904 16 119 3.2 11.3 0.00 0.00 0.00 65 1004.1
20260505233404 16 62 3.2 8.0 0.00 0.00 0.00 65 1004.0
20260505232912 16 49 1.6 4.8 0.00 0.00 0.00 64 1004.1
20260505231905 16 150 3.2 37.0 0.00 0.00 0.00 64 1004.2
20260505231404 16 139 3.2 9.7 0.00 0.00 0.00 64 1004.3
20260505230905 16 121 3.2 8.0 0.00 0.00 0.00 63 1004.3
20260505230404 16 95 1.6 4.8 0.00 0.00 0.00 63 1004.3
20260505225904 16 83 1.6 4.8 0.00 0.00 0.00 63 1004.3
20260505225404 16 117 3.2 20.9 0.00 0.00 0.00 63 1004.3
20260505224905 16 121 3.2 9.7 0.00 0.00 0.00 63 1004.3
20260505224404 16 78 4.8 19.3 0.00 0.00 0.00 63 1004.1
20260505223904 17 64 3.2 9.7 0.00 0.00 0.00 62 1004.2
20260505222904 17 131 4.8 11.3 0.00 0.00 0.00 62 1004.4
20260505221904 17 139 4.8 19.3 0.00 0.00 0.00 61 1004.4
20260505221404 17 37 4.8 12.9 0.00 0.00 0.00 61 1004.4
20260505220904 17 82 1.6 9.7 0.00 0.00 0.00 61 1004.5
20260505215905 17 146 4.8 14.5 0.00 0.00 0.00 61 1004.5
20260505215404 17 112 4.8 16.1 0.00 0.00 0.00 60 1004.5
20260505214904 17 66 3.2 16.1 0.00 0.00 0.00 60 1004.5
20260505214404 17 41 4.8 12.9 0.00 0.00 0.00 59 1004.5
20260505213905 17 45 0.0 4.8 0.00 0.00 0.00 59 1004.5
20260505213405 17 63 4.8 12.9 0.00 0.00 0.00 59 1004.5
20260505212904 17 128 3.2 9.7 0.00 0.00 0.00 59 1004.5
20260505212404 17 118 1.6 11.3 0.00 0.00 0.00 58 1004.5
20260505211904 17 142 3.2 11.3 0.00 0.00 0.00 58 1004.6
20260505211404 17 132 4.8 19.3 0.00 0.00 0.00 58 1004.6
20260505210904 17 127 6.4 14.5 0.00 0.00 0.00 57 1004.6
20260505205905 18 143 4.8 11.3 0.00 0.00 0.00 56 1004.7
20260505205404 18 114 3.2 12.9 0.00 0.00 0.00 56 1004.7
20260505204904 18 95 1.6 9.7 0.00 0.00 0.00 55 1004.7
20260505204404 18 107 4.8 12.9 0.00 0.00 0.00 54 1004.9
20260505203904 18 48 3.2 9.7 0.00 0.00 0.00 54 1004.9
20260505203404 18 76 3.2 9.7 0.00 0.00 0.00 53 1005.0
20260505202904 18 144 1.6 8.0 0.00 0.00 0.00 53 1004.9
20260505202404 18 80 1.6 4.8 0.00 0.00 0.00 52 1004.8
20260505201404 18 117 3.2 9.7 0.00 0.00 0.00 52 1004.9
20260505200904 18 145 4.8 11.3 0.00 0.00 0.00 51 1004.8
20260505200404 18 157 6.4 22.5 0.00 0.00 0.00 51 1004.8
20260505195904 18 177 8.0 11.3 0.00 0.00 0.00 50 1004.7
20260505195404 19 160 3.2 9.7 0.00 0.00 0.00 50 1004.8
20260505194904 19 120 3.2 19.3 0.00 0.00 0.00 49 1004.6
20260505194404 19 165 6.4 19.3 0.00 0.00 0.00 49 1004.7
20260505193404 19 148 4.8 9.7 0.00 0.00 0.00 48 1004.7
20260505192904 20 151 6.4 19.3 0.00 0.00 0.00 48 1004.7
20260505192404 20 125 3.2 11.3 0.00 0.00 0.00 48 1004.6
20260505191904 20 62 6.4 12.9 0.00 0.00 0.00 48 1004.8
20260505191404 20 154 3.2 19.3 0.00 0.00 0.00 47 1004.8
20260505190904 20 145 8.0 14.5 0.00 0.00 0.00 47 1004.8
20260505190405 20 94 0.0 11.3 0.00 0.00 0.00 47 1004.7
20260505185404 20 170 8.0 27.4 0.00 0.00 0.00 47 1004.8
20260505184404 21 158 3.2 12.9 0.00 0.00 0.00 47 1004.7
20260505183908 21 66 3.2 9.7 0.00 0.00 0.00 48 1004.6
20260505183404 21 111 0.0 4.8 0.00 0.00 0.00 47 1004.7
20260505182904 21 76 0.0 4.8 0.00 0.00 0.00 47 1004.6
20260505182404 21 151 0.0 4.8 0.00 0.00 0.00 46 1004.6
20260505181904 21 107 1.6 11.3 0.00 0.00 0.00 46 1004.5
20260505181404 21 164 8.0 19.3 0.00 0.00 0.00 46 1004.4
20260505180904 21 176 8.0 19.3 0.00 0.00 0.00 45 1004.4
20260505180404 22 24 3.2 19.3 0.00 0.00 0.00 45 1004.3
20260505175904 22 165 3.2 14.5 0.00 0.00 0.00 45 1004.4
20260505175404 22 146 3.2 14.5 0.00 0.00 0.00 44 1004.3
20260505174905 22 167 9.7 24.1 0.00 0.00 0.00 44 1004.3
20260505174404 22 143 4.8 12.9 0.00 0.00 0.00 44 1004.2
20260505173904 22 175 8.0 20.9 0.00 0.00 0.00 43 1004.2
20260505173404 22 167 6.4 16.1 0.00 0.00 0.00 42 1004.2
20260505172904 23 189 9.7 19.3 0.00 0.00 0.00 42 1004.2
20260505171404 23 173 3.2 11.3 0.00 0.00 0.00 43 1004.1
20260505170904 23 171 8.0 22.5 0.00 0.00 0.00 42 1004.1
20260505170404 23 194 9.7 25.7 0.00 0.00 0.00 42 1004.1
20260505165904 23 165 8.0 19.3 0.00 0.00 0.00 41 1004.2
20260505165404 24 183 12.9 22.5 0.00 0.00 0.00 41 1004.2
20260505164904 24 182 4.8 20.9 0.00 0.00 0.00 40 1004.0
20260505164404 24 178 4.8 19.3 0.00 0.00 0.00 40 1003.9
20260505163904 24 152 8.0 14.5 0.00 0.00 0.00 39 1003.9
20260505163404 24 191 8.0 24.1 0.00 0.00 0.00 39 1003.9
20260505162905 25 175 8.0 14.5 0.00 0.00 0.00 39 1004.0
20260505162404 25 213 11.3 22.5 0.00 0.00 0.00 38 1004.0
20260505161904 25 176 11.3 35.4 0.00 0.00 0.00 38 1004.1
20260505161405 25 160 6.4 19.3 0.00 0.00 0.00 38 1004.1
20260505160405 25 153 4.8 14.5 0.00 0.00 0.00 38 1004.1
20260505152904 26 183 9.7 29.0 0.00 0.00 0.00 36 1004.4
20260505152404 26 193 9.7 24.1 0.00 0.00 0.00 36 1004.4
20260505151904 26 46 6.4 19.3 0.00 0.00 0.00 36 1004.3
20260505151404 26 169 4.8 14.5 0.00 0.00 0.00 37 1004.5
20260505150904 26 137 4.8 14.5 0.00 0.00 0.00 37 1004.6
20260505150405 26 181 9.7 22.5 0.00 0.00 0.00 37 1004.6
20260505140405 27 196 16.1 37.0 0.00 0.00 0.00 25 1005.1
20260505124404 24 161 4.8 14.5 0.00 0.00 0.00 31 1005.8
20260505123904 24 158 8.0 19.3 0.00 0.00 0.00 32 1005.9
20260505123404 24 159 8.0 14.5 0.00 0.00 0.00 32 1006.0
20260505122904 24 158 8.0 19.3 0.00 0.00 0.00 33 1005.9
20260505121404 24 179 4.8 24.1 0.00 0.00 0.00 32 1006.1
20260505120904 24 155 9.7 24.1 0.00 0.00 0.00 31 1006.1
20260505120404 24 108 9.7 22.5 0.00 0.00 0.00 30 1006.1
20260505115404 25 194 9.7 16.1 0.00 0.00 0.00 30 1006.2
20260505114404 25 132 4.8 19.3 0.00 0.00 0.00 30 1006.1
20260505113905 25 135 3.2 8.0 0.00 0.00 0.00 31 1006.2
20260505113404 25 104 4.8 20.9 0.00 0.00 0.00 31 1006.3
20260505112904 25 205 8.0 24.1 0.00 0.00 0.00 30 1006.3
20260505112404 25 121 8.0 22.5 0.00 0.00 0.00 32 1006.3
20260505111904 25 136 8.0 32.2 0.00 0.00 0.00 32 1006.3
20260505111404 25 123 6.4 22.5 0.00 0.00 0.00 31 1006.4
20260505110904 25 128 4.8 27.4 0.00 0.00 0.00 31 1006.4
20260505110404 25 170 8.0 20.9 0.00 0.00 0.00 30 1006.4
20260505101905 25 164 11.3 22.5 0.00 0.00 0.00 30 1007.0
20260505101405 25 185 9.7 24.1 0.00 0.00 0.00 31 1006.9
20260505100904 25 149 4.8 19.3 0.00 0.00 0.00 31 1006.9
20260505095905 24 93 4.8 19.3 0.00 0.00 0.00 31 1006.9
20260505095405 24 158 4.8 16.1 0.00 0.00 0.00 32 1006.8
20260505094404 23 136 6.4 20.9 0.00 0.00 0.00 32 1007.1
20260505093904 23 193 4.8 16.1 0.00 0.00 0.00 33 1007.1
20260505093405 23 102 4.8 12.9 0.00 0.00 0.00 32 1007.1
20260505092904 23 156 6.4 20.9 0.00 0.00 0.00 33 1007.3
20260505092405 23 174 9.7 19.3 0.00 0.00 0.00 34 1007.3
20260505091905 23 151 6.4 14.5 0.00 0.00 0.00 34 1007.3
20260505091405 22 142 4.8 14.5 0.00 0.00 0.00 33 1007.4
20260505090904 22 197 6.4 19.3 0.00 0.00 0.00 34 1007.5
20260505090404 22 160 3.2 14.5 0.00 0.00 0.00 34 1007.5
20260505085904 22 164 6.4 11.3 0.00 0.00 0.00 34 1007.5
20260505085404 22 147 4.8 11.3 0.00 0.00 0.00 34 1007.4